Temperature
25 26 25 24 25 25 25 25 23 21 19 19 18 17 17 16 16 16 16 16 16 15 15 14 14 14 14 14 14 14 15 15 15 16 16 17 17 17 17 17 17 17 17 17
26 24 23 24 24 25 25 24 22 20 19 19 18 18 18 17 16 16 15 15 15 15 14 14 14 13 13 13 13 13 14 14 15 15 16 16 16 17 17 17 17 17 17 17
25 23 22 23 24 24 23 23 22 20 19 19 19 18 18 18 17 16 15 15 15 14 14 13 13 13 13 13 12 13 13 14 14 14 15 15 15 16 16 16 16 17 17 17
23 22 22 23 22 23 22 21 21 20 20 20 19 20 18 18 18 17 16 15 14 14 13 13 13 12 12 12 12 12 13 13 13 14 14 14 15 15 15 16 16 16 16 17
22 22 22 22 21 21 21 20 20 20 21 20 20 20 19 18 17 17 16 15 14 14 13 12 12 12 12 12 12 12 12 13 13 13 13 14 14 14 15 15 16 16 16 16
21 20 21 21 20 19 20 20 20 20 21 20 19 19 18 17 16 16 15 15 14 13 13 12 12 12 12 12 12 12 12 12 13 13 13 13 14 14 14 14 15 15 15 16
21 21 20 20 21 21 21 21 22 21 21 20 18 18 17 16 16 15 15 14 14 13 13 12 12 11 11 12 12 12 12 12 13 13 13 13 13 13 14 14 14 15 15 15
23 21 20 20 20 20 20 21 21 21 21 19 18 17 17 16 16 15 15 14 13 13 12 12 11 11 11 11 11 12 12 12 12 12 13 13 13 13 13 14 14 14 14 15
23 21 19 18 19 20 20 20 20 21 20 20 19 17 17 17 16 15 15 14 14 13 12 12 11 11 11 11 11 11 12 12 12 12 12 12 13 13 13 13 14 14 14 14
23 21 19 19 19 18 19 19 20 20 20 20 18 18 17 16 16 16 15 14 14 13 12 12 11 11 11 11 11 11 11 12 12 12 12 12 12 13 13 13 13 14 14 14
22 22 20 20 19 19 19 19 19 19 19 19 18 17 17 16 16 15 15 14 14 13 12 12 12 11 11 11 11 11 11 11 12 12 12 12 12 13 13 13 13 13 13 14
20 22 21 19 18 17 18 18 19 19 19 18 18 17 17 16 15 15 15 14 14 13 13 12 12 11 11 11 11 11 11 11 11 12 12 12 12 12 13 13 13 13 13 13
20 21 21 20 19 18 18 17 17 18 18 18 18 17 17 16 16 15 14 14 14 14 13 13 12 12 11 11 11 11 11 11 11 11 12 12 12 12 12 12 12 12 13 13
19 21 21 21 20 19 18 17 17 18 19 18 17 17 17 16 16 15 15 14 14 14 14 13 12 12 12 11 11 11 11 11 11 11 11 11 11 12 12 12 12 12 12 12
20 21 20 19 19 18 18 18 17 18 18 18 18 17 17 17 16 15 15 14 14 14 14 13 13 12 12 12 11 11 11 11 11 11 11 11 11 11 11 12 12 12 12 12
21 20 20 19 18 18 18 18 17 17 17 17 17 17 18 16 16 16 15 15 15 14 14 13 13 13 12 12 12 11 11 11 11 11 11 11 11 11 11 11 11 11 12 12
21 21 20 20 19 18 19 20 18 18 18 18 18 18 18 17 16 16 15 15 15 14 14 14 13 13 12 12 12 11 11 11 11 11 11 11 11 11 11 11 11 11 11 11
21 20 20 20 20 20 21 19 19 19 19 19 18 18 17 17 16 15 15 15 15 14 14 14 13 13 13 12 12 12 11 11 11 11 10 10 11 11 11 11 11 11 11 11
20 20 20 20 21 21 20 19 19 18 19 19 19 18 17 16 16 16 15 15 15 14 14 14 13 13 13 13 12 12 12 11 11 11 10 10 10 11 11 11 11 11 11 11
18 20 20 20 20 21 21 20 19 19 19 20 19 18 17 17 18 18 16 15 14 14 14 14 14 13 13 13 12 12 12 11 11 11 11 10 11 11 11 11 10 10 10 10
19 19 20 20 20 22 21 18 18 19 21 20 19 18 17 17 19 17 15 15 14 14 14 14 14 13 13 13 13 12 12 11 11 11 11 11 11 10 10 10 10 10 10 10
21 21 20 20 20 21 18 18 19 21 20 19 18 18 17 17 16 15 15 15 14 14 14 14 14 14 13 13 13 12 12 11 11 11 11 11 11 11 10 10 10 10 10 10
21 22 22 21 22 20 18 19 19 19 19 19 18 18 17 17 16 15 15 15 15 14 14 14 14 14 13 13 13 12 12 12 11 11 11 11 11 11 10 10 10 10 10 10
21 19 20 20 21 19 17 18 18 18 19 18 18 17 17 16 16 16 15 15 15 15 15 15 14 14 14 13 13 12 12 12 11 11 11 11 11 10 10 10 10 10 10 9
22 19 20 21 22 19 17 17 18 17 17 17 17 17 17 17 16 16 16 15 15 15 15 15 14 14 14 13 13 13 12 12 11 11 11 11 11 10 10 10 10 10 10 10
21 20 21 22 23 22 21 19 18 17 17 17 17 17 16 16 16 16 16 15 15 15 15 15 15 14 14 14 13 13 13 12 12 12 11 11 11 10 10 10 10 10 10 10
Wind_Speed
4 5 6 7 6 3 2 1 2 5 4 6 10 10 8 10 12 14 14 15 15 16 16 15 15 14 14 13 12 12 11 10 9 7 6 6 6 6 7 7 10 11 11 12
6 8 6 4 3 2 1 1 3 6 5 4 7 8 7 9 12 13 14 15 16 17 18 17 17 15 15 14 14 13 12 11 10 8 7 6 7 7 7 7 9 11 11 11
7 5 3 3 5 2 3 2 2 4 5 5 5 4 5 6 9 12 13 14 16 17 18 18 18 17 16 15 15 13 13 12 10 9 7 7 6 6 6 7 7 8 11 11
8 5 3 4 7 5 1 3 1 5 7 3 4 3 5 6 9 13 15 16 17 17 17 17 17 17 17 15 14 14 13 12 11 9 8 8 7 7 7 6 6 7 8 9
6 5 5 5 5 5 3 2 3 6 5 4 1 5 3 7 12 15 16 16 17 17 17 17 17 17 16 15 13 13 13 12 11 9 8 7 6 6 6 6 6 6 6 7
7 4 6 5 2 3 0 4 5 5 5 4 2 4 3 8 12 15 15 16 16 17 17 17 17 17 16 15 14 13 12 12 11 9 8 6 6 6 5 5 4 4 3 4
6 5 4 4 1 1 2 5 3 5 4 1 2 1 3 7 10 12 14 15 15 15 16 17 17 17 16 16 15 14 13 12 12 10 9 7 6 5 4 4 3 2 2 2
5 3 4 6 5 3 3 4 4 4 2 2 1 1 3 5 8 9 11 12 14 15 15 16 16 15 15 15 15 14 14 13 12 11 10 8 7 4 4 3 2 1 0 0
2 4 4 5 5 4 1 2 3 2 1 2 2 2 3 3 7 10 11 13 14 14 15 15 15 15 15 14 14 14 14 13 13 12 11 10 8 6 5 5 4 3 2 1
2 5 3 1 1 5 4 2 3 3 3 2 2 1 3 6 9 10 12 13 14 14 14 14 14 14 13 13 13 13 13 13 12 12 11 9 10 9 8 7 7 6 5 3
1 3 4 3 4 5 1 1 1 0 3 3 1 2 3 5 7 9 10 11 12 13 12 12 12 13 12 13 12 12 12 13 12 12 11 11 11 11 10 9 9 8 7 6
1 1 4 4 3 2 3 3 2 2 1 1 1 2 3 3 5 6 8 9 10 11 11 11 11 12 12 13 13 13 13 13 12 12 11 11 11 11 11 11 11 10 9 8
3 2 3 5 4 3 1 2 1 1 1 1 1 2 3 1 3 4 6 8 9 10 10 10 10 11 12 12 12 12 12 12 12 12 12 12 12 12 12 11 11 11 10 9
1 1 2 2 4 3 2 2 2 3 2 1 1 1 1 1 2 4 5 7 8 9 10 11 10 11 11 11 11 12 12 11 11 11 11 12 11 11 11 11 11 11 10 10
2 2 4 5 4 2 2 3 4 3 2 2 1 2 1 0 1 2 4 5 7 9 10 10 10 10 10 11 11 11 11 11 10 11 11 11 11 11 11 11 11 11 10 11
2 4 5 4 3 3 5 6 6 5 4 4 4 4 3 2 1 1 2 4 6 8 9 9 9 9 10 10 10 10 10 10 10 11 11 11 11 11 11 11 11 11 11 11
4 4 3 3 3 4 7 9 10 6 7 6 6 4 6 5 3 2 1 3 5 6 7 8 9 8 8 8 9 9 9 9 9 10 10 10 10 11 11 10 10 10 10 10
4 4 2 2 3 4 3 3 7 8 8 9 6 5 7 5 3 3 3 3 4 5 6 7 7 7 7 7 7 7 7 8 9 9 10 10 10 10 10 10 10 10 9 9
2 3 3 3 4 5 3 6 7 8 7 12 11 9 8 6 5 5 5 3 3 4 5 6 6 6 6 6 6 6 7 7 8 8 9 9 9 10 10 10 10 9 8 9
2 4 4 4 4 3 2 8 8 6 6 11 14 12 11 9 6 4 4 3 2 3 4 5 5 5 5 5 5 5 6 7 7 7 7 8 8 9 9 9 8 8 7 8
5 5 7 7 5 5 5 10 10 6 1 12 15 14 13 11 4 5 4 3 2 2 3 4 4 4 4 4 4 5 5 6 6 5 5 6 7 8 8 8 7 7 7 8
7 6 6 5 6 4 11 12 10 4 4 11 14 14 13 10 6 5 4 3 2 2 2 3 3 3 3 3 3 4 5 4 4 4 5 5 6 6 6 7 8 8 8 8
7 7 4 7 5 2 14 10 8 4 7 10 14 14 13 12 10 8 6 4 3 2 1 2 2 2 2 2 3 4 4 3 3 4 4 5 5 6 6 7 7 7 7 7
6 5 5 7 10 9 13 12 9 8 8 10 13 14 14 13 11 10 7 5 4 3 1 1 1 1 2 2 2 2 2 1 2 3 4 4 4 5 6 5 6 7 7 7
6 8 7 9 8 6 11 17 15 12 10 11 13 14 15 13 12 11 8 7 5 4 2 2 1 1 0 1 1 2 1 1 2 2 3 3 3 3 4 5 5 6 7 6
9 10 9 7 7 7 6 13 18 17 15 14 15 15 15 14 12 11 9 7 6 5 4 3 2 2 1 1 2 2 2 2 1 1 2 1 1 1 1 2 3 4 4 5
Wind_Direction
54 83 64 41 30 28 16 301 108 101 110 87 97 90 64 42 33 24 16 9 6 1 356 357 352 348 344 342 337 332 327 325 323 317 308 297 282 270 257 244 239 236 233 234
118 76 51 53 59 73 63 200 128 118 117 125 119 95 72 46 34 23 12 6 1 355 352 354 351 349 346 342 338 332 328 324 321 314 305 290 286 277 268 255 241 236 233 228
99 76 61 72 53 56 56 4 156 153 139 152 177 151 68 45 30 22 15 6 1 356 350 348 348 347 345 344 339 334 329 323 319 315 305 295 281 269 261 255 245 236 231 227
84 70 75 72 47 358 106 37 234 190 203 185 247 246 71 16 16 14 9 3 360 356 352 350 348 347 345 342 339 336 333 330 326 318 307 299 287 278 269 264 253 241 234 226
98 65 48 49 36 4 21 345 230 207 217 201 280 278 70 15 6 3 1 359 358 356 355 353 352 349 347 346 345 342 340 337 334 328 319 306 292 285 281 273 263 248 234 225
100 79 39 30 56 34 113 150 140 177 213 222 359 303 36 17 357 351 354 358 359 358 357 356 354 352 352 353 353 350 349 348 344 340 336 328 311 299 292 282 266 254 231 219
123 91 60 8 265 128 270 249 230 212 218 138 47 315 43 14 359 352 352 356 358 359 359 359 357 356 357 356 357 356 358 358 357 355 353 349 341 328 314 301 280 263 232 216
185 125 54 29 12 349 10 312 307 304 309 130 169 8 62 20 1 360 2 2 1 2 3 1 0 1 1 359 360 1 3 5 4 4 1 359 359 355 345 339 333 321 320 193
186 122 98 51 32 339 322 29 345 311 302 226 143 125 135 19 10 8 7 5 3 1 1 1 4 6 6 5 3 3 6 8 8 8 6 8 11 9 9 13 18 24 34 62
119 132 112 129 184 57 27 3 260 278 282 273 169 190 4 3 2 2 3 4 2 1 1 2 4 6 7 6 4 6 11 11 12 12 15 18 21 19 20 26 30 30 36 47
175 146 133 141 43 22 32 91 37 24 324 305 286 91 37 356 352 351 357 1 1 1 2 2 2 5 8 9 11 11 12 15 15 15 18 24 26 26 29 30 29 31 35 38
50 180 129 109 92 24 28 22 305 304 70 334 310 96 84 349 339 345 353 359 3 4 6 7 7 9 11 12 13 15 16 18 17 17 24 28 29 30 33 32 30 34 41 43
168 208 166 165 173 175 109 65 27 1 151 220 286 103 116 334 349 2 359 359 2 6 10 11 11 12 13 14 14 16 18 18 18 20 25 28 28 30 33 33 32 34 37 40
241 210 325 24 79 130 154 164 207 256 265 205 234 148 149 11 8 8 2 359 3 10 14 13 12 15 15 16 18 18 20 19 20 22 26 28 27 29 32 33 33 35 36 38
239 130 107 96 108 149 191 201 210 240 277 264 188 206 195 111 7 354 353 359 8 13 13 13 11 15 16 18 19 21 22 21 22 25 28 27 28 32 33 33 33 36 37 38
185 153 153 156 172 225 246 228 219 226 227 222 212 217 181 179 210 263 360 3 5 8 8 8 10 12 13 15 15 18 20 23 26 29 29 28 29 31 32 33 34 36 37 37
171 176 204 194 194 256 254 223 210 213 210 209 214 186 171 192 204 229 318 342 353 358 359 2 4 6 7 10 10 14 17 20 27 32 32 30 30 31 32 34 35 35 37 39
180 184 223 235 227 252 101 129 200 216 219 213 215 185 189 197 202 228 255 295 330 349 350 355 357 359 1 7 8 13 19 23 29 31 31 29 29 32 33 34 34 34 36 39
222 202 226 250 263 268 189 189 192 209 229 212 207 197 190 189 213 217 213 250 299 326 332 337 341 345 353 3 3 10 22 28 31 29 26 26 28 31 33 34 32 32 36 40
169 224 238 241 266 257 147 159 175 203 241 197 197 192 185 189 205 166 166 210 268 307 324 333 336 344 358 7 1 9 24 30 31 28 27 28 30 32 34 34 32 34 39 42
191 206 227 239 257 263 141 151 167 206 252 168 186 187 186 195 190 128 159 197 255 301 322 328 334 349 358 358 359 13 27 34 34 34 36 34 34 37 35 34 36 40 44 46
207 204 212 216 233 249 151 164 197 220 119 169 181 184 187 190 177 171 188 204 232 284 326 335 340 358 5 4 6 30 40 43 46 51 50 44 39 36 37 38 37 39 41 45
219 219 223 220 241 74 178 194 206 202 182 179 181 183 184 187 190 193 199 204 215 258 311 332 339 350 21 34 18 35 59 67 70 68 63 56 53 48 41 39 39 39 40 40
208 209 230 249 251 226 210 215 210 206 199 186 184 181 185 189 191 193 198 200 205 222 252 291 306 351 48 52 50 52 81 109 95 79 73 68 62 57 51 40 36 38 32 34
210 188 219 244 250 224 220 216 210 203 200 188 186 186 188 190 192 193 197 199 202 206 214 235 264 326 40 97 109 103 123 150 128 105 98 85 74 61 53 54 39 34 44 30
201 197 204 233 220 208 209 204 202 199 198 193 187 188 191 194 194 195 198 196 198 202 205 209 211 222 212 173 153 147 167 202 186 135 118 107 102 89 60 60 86 79 54 60
Height
1547 1547 1552 1554 1552 1551 1551 1553 1559 1569 1573 1573 1576 1580 1582 1582 1579 1577 1575 1572 1570 1567 1564 1560 1556 1552 1549 1545 1542 1538 1536 1533 1530 1528 1527 1525 1525 1524 1525 1525 1526 1528 1530 1531
1548 1556 1559 1558 1556 1553 1553 1556 1563 1572 1574 1573 1577 1579 1580 1581 1580 1579 1576 1573 1570 1566 1562 1558 1555 1551 1547 1543 1539 1536 1533 1530 1527 1525 1523 1521 1520 1520 1520 1521 1521 1522 1524 1526
1551 1562 1562 1559 1557 1556 1558 1559 1563 1568 1575 1574 1574 1577 1577 1579 1579 1579 1577 1574 1571 1567 1562 1558 1553 1549 1545 1541 1536 1533 1529 1526 1524 1521 1519 1517 1516 1515 1515 1515 1516 1517 1519 1520
1559 1564 1562 1560 1562 1559 1562 1566 1566 1567 1568 1569 1573 1569 1576 1576 1577 1577 1576 1573 1570 1567 1562 1558 1553 1548 1543 1539 1534 1531 1527 1523 1520 1518 1516 1514 1512 1511 1511 1511 1511 1512 1514 1515
1563 1565 1563 1564 1567 1565 1565 1567 1565 1565 1564 1567 1570 1567 1573 1575 1576 1577 1576 1574 1571 1567 1563 1558 1553 1547 1542 1537 1533 1528 1525 1521 1518 1515 1513 1510 1509 1508 1507 1507 1507 1508 1509 1510
1566 1569 1569 1569 1570 1570 1568 1567 1566 1564 1562 1568 1574 1572 1577 1579 1581 1579 1577 1574 1571 1567 1563 1558 1553 1547 1541 1536 1532 1527 1523 1520 1516 1513 1510 1508 1506 1505 1505 1504 1504 1505 1506 1507
1566 1568 1570 1571 1566 1567 1564 1563 1562 1563 1564 1570 1576 1576 1583 1582 1582 1581 1578 1575 1572 1568 1563 1558 1552 1546 1541 1536 1532 1527 1523 1519 1515 1512 1509 1507 1505 1504 1503 1502 1502 1502 1503 1504
1562 1568 1572 1572 1571 1568 1567 1563 1564 1564 1563 1570 1577 1578 1582 1583 1583 1581 1579 1576 1572 1568 1564 1559 1553 1548 1542 1537 1533 1528 1524 1520 1516 1512 1509 1506 1504 1503 1502 1502 1502 1502 1502 1502
1558 1570 1574 1575 1574 1570 1566 1565 1567 1564 1566 1569 1572 1578 1579 1581 1581 1580 1579 1576 1573 1569 1565 1560 1555 1550 1544 1539 1534 1530 1526 1521 1517 1513 1510 1507 1505 1504 1503 1502 1502 1502 1502 1502
1558 1568 1573 1575 1573 1574 1571 1570 1566 1565 1569 1568 1574 1577 1579 1580 1580 1580 1578 1576 1573 1570 1566 1562 1557 1552 1547 1542 1537 1532 1528 1524 1520 1516 1513 1509 1507 1506 1505 1503 1502 1502 1502 1502
1561 1562 1572 1572 1573 1574 1572 1572 1570 1569 1569 1570 1574 1580 1580 1582 1582 1581 1579 1577 1574 1571 1567 1563 1559 1554 1549 1545 1540 1535 1531 1526 1522 1519 1516 1513 1510 1508 1507 1505 1504 1504 1503 1503
1564 1560 1566 1573 1577 1578 1575 1575 1572 1570 1573 1574 1574 1583 1581 1582 1582 1581 1579 1577 1575 1572 1568 1565 1561 1556 1552 1547 1543 1538 1534 1530 1526 1523 1519 1516 1514 1512 1510 1508 1507 1506 1505 1505
1565 1563 1567 1572 1577 1577 1576 1578 1577 1573 1572 1574 1577 1582 1580 1581 1581 1581 1579 1578 1575 1572 1569 1566 1562 1558 1554 1550 1545 1541 1537 1533 1530 1526 1523 1520 1518 1515 1513 1512 1510 1509 1508 1507
1567 1563 1565 1568 1568 1571 1575 1578 1578 1575 1570 1574 1576 1577 1578 1578 1579 1580 1579 1578 1575 1573 1570 1567 1563 1560 1556 1552 1548 1544 1541 1537 1533 1530 1527 1524 1521 1519 1517 1515 1513 1512 1511 1510
1566 1565 1568 1570 1572 1572 1574 1575 1576 1575 1573 1573 1574 1576 1576 1577 1579 1579 1579 1577 1575 1573 1571 1568 1565 1562 1558 1555 1551 1547 1544 1540 1537 1534 1530 1527 1525 1523 1520 1518 1517 1515 1513 1512
1565 1566 1568 1572 1573 1573 1573 1573 1574 1575 1574 1573 1574 1575 1574 1577 1578 1578 1577 1577 1575 1573 1571 1569 1566 1563 1560 1557 1554 1550 1547 1543 1540 1537 1534 1531 1528 1526 1523 1521 1520 1518 1517 1515
1564 1565 1567 1567 1571 1572 1568 1563 1568 1569 1569 1570 1571 1570 1573 1575 1576 1577 1577 1576 1575 1573 1572 1569 1567 1564 1561 1559 1555 1552 1549 1546 1543 1540 1537 1534 1532 1529 1527 1525 1523 1521 1520 1518
1564 1565 1565 1566 1570 1571 1560 1561 1562 1565 1565 1566 1567 1569 1572 1574 1575 1576 1576 1575 1574 1573 1571 1569 1567 1565 1562 1560 1557 1554 1551 1548 1546 1543 1540 1537 1535 1533 1530 1528 1526 1524 1523 1521
1566 1566 1566 1565 1563 1559 1559 1560 1562 1563 1562 1562 1564 1568 1571 1573 1574 1573 1574 1574 1574 1573 1571 1569 1567 1565 1563 1560 1558 1556 1553 1551 1548 1545 1543 1540 1538 1536 1533 1531 1529 1527 1525 1523
1569 1566 1565 1566 1566 1559 1553 1555 1559 1562 1559 1556 1560 1564 1568 1571 1569 1569 1572 1573 1572 1571 1570 1568 1567 1565 1563 1561 1559 1557 1555 1552 1550 1547 1545 1543 1541 1539 1536 1534 1532 1530 1528 1526
1564 1565 1564 1563 1561 1550 1550 1555 1560 1562 1551 1552 1556 1560 1564 1567 1566 1569 1571 1571 1571 1570 1569 1568 1566 1565 1563 1561 1559 1558 1556 1553 1551 1549 1547 1545 1543 1541 1539 1537 1534 1533 1531 1529
1554 1557 1559 1559 1560 1553 1550 1554 1553 1548 1549 1551 1554 1558 1562 1565 1567 1568 1569 1570 1570 1570 1568 1567 1566 1565 1563 1561 1560 1559 1556 1554 1552 1550 1549 1547 1545 1543 1541 1539 1537 1536 1534 1532
1549 1548 1547 1548 1545 1543 1545 1545 1546 1547 1548 1550 1553 1556 1560 1563 1565 1567 1568 1569 1569 1568 1568 1566 1565 1564 1563 1561 1560 1559 1557 1555 1554 1552 1550 1549 1547 1546 1544 1542 1540 1539 1537 1535
1544 1548 1547 1543 1538 1540 1542 1543 1544 1545 1547 1549 1551 1554 1558 1560 1563 1565 1566 1567 1567 1567 1566 1566 1565 1564 1563 1561 1560 1559 1557 1556 1555 1554 1552 1551 1550 1548 1547 1545 1543 1541 1540 1538
1537 1543 1541 1537 1533 1536 1535 1536 1539 1542 1544 1547 1549 1552 1555 1558 1560 1562 1564 1565 1565 1565 1565 1564 1564 1563 1562 1561 1560 1559 1558 1557 1556 1555 1554 1553 1551 1550 1549 1547 1545 1544 1542 1540
1531 1532 1532 1528 1526 1527 1528 1529 1533 1537 1540 1543 1546 1549 1552 1555 1557 1560 1561 1562 1563 1564 1564 1563 1563 1562 1562 1561 1560 1559 1557 1557 1557 1556 1555 1554 1553 1552 1551 1549 1548 1546 1544 1543